CW2927 Weather Reports


time (UTC)temp
C
wind
direction
speed
KPH
gust
KPH
rain 1hr
cm
rain 24hr
cm
rain mn
cm
humidity
%
barometer
mb
20260502190204 8 265 1.6 4.8 0.00 0.03 0.03 74 1010.6
20260502184705 8 287 0.0 3.2 0.00 0.03 0.03 77 1010.7
20260502184204 7 286 1.6 4.8 0.03 0.03 0.03 77 1010.8
20260502182705 7 286 3.2 4.8 0.03 0.03 0.03 80 1010.8
20260502182204 7 286 1.6 8.0 0.03 0.03 0.03 81 1010.8
20260502180705 6 287 3.2 4.8 0.03 0.03 0.03 81 1010.8
20260502180204 6 286 4.8 8.0 0.03 0.03 0.03 80 1010.9
20260502170204 7 278 4.8 9.7 0.00 0.00 0.00 72 1010.8
20260502164204 8 305 8.0 12.9 0.00 0.00 0.00 69 1010.8
20260502162704 8 289 4.8 11.3 0.00 0.00 0.00 67 1010.8
20260502162206 8 292 8.0 12.9 0.00 0.00 0.00 66 1010.8
20260502160704 8 297 4.8 9.7 0.00 0.00 0.00 66 1010.9
20260502160204 8 273 3.2 9.7 0.00 0.00 0.00 66 1010.9
20260502152205 8 251 4.8 12.9 0.00 0.00 0.00 68 1011.3
20260502150704 8 270 3.2 4.8 0.00 0.00 0.00 69 1011.4
20260502150204 8 272 6.4 12.9 0.00 0.00 0.00 69 1011.5
20260502130704 5 66 1.6 4.8 0.00 0.00 0.00 75 1012.0
20260502130204 5 66 0.0 4.8 0.00 0.00 0.00 74 1012.0
20260502122704 3 66 0.0 4.8 0.00 0.00 0.00 75 1012.0
20260502122204 3 65 3.2 4.8 0.00 0.00 0.00 74 1011.9
20260502120704 3 65 3.2 4.8 0.00 0.00 0.00 74 1011.9
20260502120204 3 65 3.2 4.8 0.00 0.00 0.00 74 1011.9
20260502114705 3 65 3.2 4.8 0.00 0.00 0.00 74 1011.9
20260502112704 2 65 3.2 4.8 0.00 0.00 0.00 75 1011.9
20260502112204 2 65 3.2 8.0 0.00 0.00 0.00 76 1011.9
20260502110704 2 65 3.2 4.8 0.00 0.00 0.00 78 1011.9
20260502110204 2 65 1.6 4.8 0.00 0.00 0.00 78 1011.9
20260502104704 2 65 3.2 4.8 0.00 0.00 0.00 77 1011.9
20260502104204 2 63 3.2 8.0 0.00 0.00 0.00 76 1011.8
20260502102704 2 63 1.6 3.2 0.00 0.00 0.00 75 1011.9
20260502102204 2 63 1.6 8.0 0.00 0.00 0.00 75 1011.9
20260502100203 2 63 4.8 8.0 0.00 0.00 0.00 74 1011.6
20260502090703 1 65 3.2 8.0 0.00 0.00 0.00 79 1011.4
20260502090203 1 66 3.2 11.3 0.00 0.00 0.00 79 1011.4
20260502070705 2 63 1.6 4.8 0.00 0.00 0.00 77 1011.3
20260502070205 2 63 1.6 4.8 0.00 0.00 0.00 77 1011.3
20260502064705 2 63 1.6 4.8 0.00 0.00 0.00 77 1011.2
20260502062705 2 63 1.6 4.8 0.00 0.00 0.00 76 1011.2
20260502062205 2 63 3.2 4.8 0.00 0.00 0.00 76 1011.2
20260502060206 2 61 1.6 3.2 0.00 0.00 0.00 76 1011.2
20260502054204 2 62 1.6 8.0 0.00 0.00 0.00 74 1011.2
20260502052705 3 62 3.2 4.8 0.00 0.00 0.00 73 1011.2
20260502052205 3 62 3.2 4.8 0.00 0.00 0.00 72 1011.1
20260502050705 3 61 3.2 4.8 0.00 0.00 0.00 72 1011.1
20260502050205 3 61 3.2 12.9 0.00 0.00 0.00 71 1011.1
20260502044705 3 69 1.6 4.8 0.00 0.00 0.00 72 1011.0
20260502044204 3 68 3.2 12.9 0.00 0.00 0.00 71 1011.1
20260502042705 3 71 3.2 8.0 0.00 0.00 0.00 72 1011.1
20260502042205 3 71 3.2 4.8 0.00 0.00 0.00 73 1011.1
20260502040705 3 72 3.2 4.8 0.00 0.00 0.00 73 1011.2
20260502040205 3 72 3.2 4.8 0.00 0.00 0.00 73 1011.2
20260502034705 3 72 1.6 4.8 0.00 0.00 0.00 72 1011.2
20260502034205 3 72 1.6 4.8 0.00 0.00 0.00 71 1011.1
20260502032704 4 72 3.2 4.8 0.00 0.00 0.00 70 1011.0
20260502032205 4 72 1.6 4.8 0.00 0.00 0.00 69 1011.1
20260502030707 5 72 3.2 4.8 0.00 0.00 0.00 68 1011.1
20260502030205 5 71 4.8 11.3 0.00 0.00 0.00 68 1011.0
20260502024705 5 71 4.8 8.0 0.00 0.00 0.00 67 1011.0
20260502024205 5 72 4.8 8.0 0.00 0.00 0.00 67 1011.0
20260502022705 5 71 3.2 4.8 0.00 0.00 0.00 66 1011.0
20260502022205 5 71 3.2 8.0 0.00 0.00 0.00 65 1011.1
20260502020705 6 67 3.2 4.8 0.00 0.00 0.00 64 1011.0
20260502020205 6 66 3.2 4.8 0.00 0.00 0.00 64 1011.0
20260502014705 6 65 3.2 8.0 0.00 0.00 0.00 63 1011.1
20260502014205 6 65 3.2 4.8 0.00 0.00 0.00 62 1011.1
20260502012705 7 65 4.8 8.0 0.00 0.00 0.00 60 1011.0
20260502012205 7 64 4.8 11.3 0.00 0.00 0.00 60 1011.0
20260502010704 7 61 4.8 8.0 0.00 0.00 0.00 59 1010.8
20260502010204 7 33 3.2 4.8 0.00 0.00 0.00 60 1010.8
20260502004704 7 32 1.6 4.8 0.00 0.00 0.00 57 1010.7
20260502004205 7 32 1.6 4.8 0.00 0.00 0.00 57 1010.7
20260502002705 8 31 3.2 4.8 0.00 0.03 0.00 56 1010.5
20260502002205 8 31 1.6 4.8 0.00 0.03 0.00 57 1010.5
20260502000704 8 31 1.6 4.8 0.00 0.05 0.00 56 1010.4
20260502000205 8 31 3.2 4.8 0.00 0.05 0.00 56 1010.4
20260501234704 8 30 3.2 4.8 0.00 0.08 0.00 55 1010.2
20260501234204 8 30 3.2 8.0 0.00 0.08 0.00 55 1010.2
20260501232705 8 5 4.8 8.0 0.00 0.08 0.00 54 1009.9
20260501232205 8 5 3.2 9.7 0.00 0.08 0.00 53 1009.9
20260501230704 8 305 3.2 8.0 0.00 0.08 0.00 53 1009.9
20260501230205 8 292 4.8 4.8 0.00 0.08 0.00 54 1009.9
20260501224705 9 289 1.6 4.8 0.00 0.08 0.00 54 1009.8
20260501224205 9 289 4.8 9.7 0.00 0.08 0.00 53 1009.9
20260501222704 9 291 3.2 4.8 0.00 0.08 0.00 52 1009.8
20260501222205 9 291 3.2 9.7 0.00 0.08 0.00 51 1009.7
20260501220705 10 304 4.8 8.0 0.00 0.08 0.00 50 1009.8
20260501214705 10 257 6.4 9.7 0.00 0.08 0.00 50 1009.9
20260501214205 10 290 8.0 14.5 0.00 0.08 0.00 50 1009.8
20260501212704 10 292 9.7 16.1 0.00 0.08 0.00 50 1009.8
20260501212204 10 273 3.2 20.9 0.00 0.08 0.00 51 1009.7
20260501210704 11 281 4.8 9.7 0.00 0.08 0.00 48 1009.7
20260501210205 11 290 8.0 19.3 0.00 0.08 0.00 48 1009.6
20260501204704 11 301 8.0 11.3 0.00 0.08 0.00 49 1009.6
20260501204205 11 289 4.8 14.5 0.00 0.08 0.00 49 1009.7
20260501202705 10 288 6.4 19.3 0.00 0.08 0.00 53 1009.7
20260501202205 10 293 6.4 14.5 0.00 0.08 0.00 51 1009.7
20260501200704 10 292 8.0 12.9 0.00 0.08 0.00 52 1009.7
20260501200205 10 295 4.8 14.5 0.00 0.08 0.00 53 1009.7
20260501194704 10 296 6.4 11.3 0.00 0.08 0.00 52 1009.7
20260501194204 10 303 8.0 16.1 0.00 0.08 0.00 51 1009.7
20260501192704 10 299 9.7 22.5 0.00 0.08 0.00 52 1009.7
20260501192205 10 317 6.4 20.9 0.00 0.08 0.00 54 1009.7